Location: Bavegemberg
(50.9500°N, 3.8833°E)
Time: 10:23:22
(UTC+00:00)

EXPRESS MD2 - Pass Details

Date: 23 May 2024
Orbit: 262 x 3334 km, 49.9° (Epoch: 14 June)

Event Time Altitude Azimuth Distance (km) Brightness Sun altitude
Exits shadow 01:30:20 18° 152° (SSE) 1,017 4.4 -14.5°
Maximum altitude 01:30:50 19° 138° (SE) 1,035 4.5 -14.5°
Drops below altitude 10° 01:33:37 10° 91° (E) 1,796 6.3 -14.3°
Sets 01:37:01 0° 75° (ENE) 3,180 7.9 -14.0°
